Regional Weather Roundup
Issued by NWS

Home | Current Version | Previous Version | Text Only | Print | Product List | Glossary On
Versions: 1 2 3 4 5 6 7 8 9 10 11 12 13 14 15 16 17 18 19 20 21 22 23 24 25 26 27 28 29 30 31 32 33 34 35 36 37 38 39 40 41 42 43 44 45 46 47 48 49 50
000
ASUS44 KBMX 041410
RWRAL

ALABAMA REGIONAL WEATHER ROUNDUP
NATIONAL WEATHER SERVICE BIRMINGHAM AL
900 AM CDT TUE AUG 04 2015

NOTE: "FAIR" INDICATES FEW OR NO CLOUDS BELOW 12,000 FEET
WITH NO SIGNIFICANT WEATHER AND/OR OBSTRUCTIONS TO VISIBILITY.

THE REMARK "TC" DENOTES TEMPERATURE IN DEGREES CELSIUS.

ALZ001>011-014-016>018-020-041500-
NORTH ALABAMA

CITY           SKY/WX    TMP DP  RH WIND       PRES   REMARKS
MUSCLE SHOALS  SUNNY     85  72  65 CALM      30.04S HX  91
HUNTSVILLE     MOSUNNY   84  70  62 CALM      30.03R
DECATUR        SUNNY     81  73  76 CALM      30.03S
HALEYVILLE     FAIR      84  74  72 CALM      30.07S HX  91
GADSDEN        MOSUNNY   81  63  54 CALM      30.02S
$$

ALZ012-013-022-023-030>036-040>044-041500-
WEST CENTRAL ALABAMA

CITY           SKY/WX    TMP DP  RH WIND       PRES   REMARKS
TUSCALOOSA     SUNNY     86  69  56 CALM      30.00R HX  90
$$

ALZ015-024>027-033>036-040>044-041500-
CENTRAL ALABAMA

CITY           SKY/WX    TMP DP  RH WIND       PRES   REMARKS
BIRMINGHAM     PTSUNNY   86  64  47 E3        30.04R
MONTGOMERY     SUNNY     82  67  60 CALM      30.00R
SHELBY CO ARPT SUNNY     83  65  54 CALM      30.02R
MAXWELL AFB    SUNNY     80  70  71 CALM      29.99R
GREENVILLE     FAIR      86  61  42 W3        30.00R
$$

ALZ019-021-028-029-037-038-045>048-041500-
EAST CENTRAL ALABAMA

CITY           SKY/WX    TMP DP  RH WIND       PRES   REMARKS
ANNISTON       MOSUNNY   79  62  56 E5        30.03R
ALEXANDER CITY MOSUNNY   82  62  50 CALM      30.02S
AUBURN           N/A    N/A N/A N/A MISG        N/A
$$

ALZ051>064-041500-
SOUTHWEST ALABAMA

CITY           SKY/WX    TMP DP  RH WIND       PRES   REMARKS
MOBILE         MOSUNNY   83  75  77 CALM      30.02R HX  90
BROOKLEY FIELD SUNNY     85  75  72 NW3       30.02R HX  93
EVERGREEN      SUNNY     86  73  65 VRB5      30.00R HX  93
$$

ALZ049-050-065>069-041500-
SOUTHEAST ALABAMA

CITY           SKY/WX    TMP DP  RH WIND       PRES   REMARKS
DOTHAN         SUNNY     83  73  72 W6        30.04R
OZARK          SUNNY     83  73  72 NW6       30.00R
TROY           SUNNY     82  70  66 CALM      30.01R
EUFAULA        FAIR      87  72  60 CALM      29.99R HX  93
$$



USA.gov is the U.S. government's official web portal to all federal, state and local government web resources and services.